ECHOSTAR 23 (42070 NORAD) Tracking and Keplerian Element Data

This shows tracking and keplerian element data for the satellite.

Feedback or suggestion? Click here.




ElementValue
Catalog42070
NameECHOSTAR 23
Epoch Orbit2503
Epoch Day12.50396414
Epoch Year2024
RAAN42.6328
Inclination0.0175
Eccentricity0.0002113
Argument of Perigee242.6648
Mean Anonmoly257.7187
Mean Motion1.00272162
Decay Rate-4.7E-07
L11 42070U 17014A 24012.50396414 -.00000047 00000+0 00000+0 0 9997
L22 42070 0.0175 42.6328 0002113 242.6648 257.7187 1.00272162 25030



Live tracking and technical data element details for ECHOSTAR 23 (NORAD 42070). ECHOSTAR 23 can be tracked NOW for your location showing map with azimuth and elevation plus other details from your city location.







IsCatalogInMostPopularTable: catalog: 42070, numindb: 810
Update: records affected: 1



GetName: 42070 ECHOSTAR 23

Hit Count: updated at: Fri, 01 Mar 2024 11:52:47 GMT